sat.trackr.live / text

‹ back to catalog

ONEWEB-0050

NORAD 45453 · 2020-020AF

PAYLOAD ACTIVE UNKNOWN

§ Identity

Operator
Country
UK
Launch date
2020-03-21
Launch site
TYMSC
Launch vehicle
Mass (kg)
RCS (m²)

Purposes: comms

External: N2YO · Heavens-Above · Gunter

§ Orbital elements

Epoch: 2026-05-24T23:27:36.389664Z

Period
96.63 min
Inclination
88.9303°
Eccentricity
0.0005828
Mean motion
14.90256607 rev/d
Perigee alt
593.1 km
Apogee alt
601.2 km
Semi-major
6,975.3 km
B*
1.2511e-4
RAAN
236.3601°
Arg perigee
75.9469°
Mean anomaly
284.2408°
Rev number
33,692

§ Raw data

ONEWEB-00501 45453U 20020AF  26144.97750451  .00001235  00000+0  12511-3 0  99932 45453  88.9303 236.3601 0005828  75.9469 284.2408 14.90256607336929

JSON: /api/v1/satellites/45453 · /tle

For live sub-satellite position, see the globe view (requires WebGL).

§ Visibility from observer

Set your observer location to see the next 7 days of passes ≥ 10°. The values pass through the URL so the page stays shareable.

No JS? Fill the form by hand. The geolocation button needs JavaScript.